Regional Weather Roundup
Issued by NWS

Home | Current Version | Previous Version | Graphics & Text | Print | Product List | Glossary On
Versions: 1 2 3 4 5 6 7 8 9 10 11 12 13 14 15 16 17 18 19 20 21 22 23 24 25 26 27 28 29 30 31 32 33 34 35 36 37 38 39 40 41 42 43 44 45 46 47 48 49 50
739
ASUS43 KLSX 162210
RWRMO

WEATHER SUMMARY FOR MISSOURI
NATIONAL WEATHER SERVICE SPRINGFIELD MO
400 PM CST MON JAN 16 2017

NOTE: "FAIR" INDICATES FEW OR NO CLOUDS BELOW 12,000 FEET WITH NO
       SIGNIFICANT WEATHER AND/OR OBSTRUCTIONS TO VISIBILITY.
       CURRENT SKY AND/OR WEATHER CONDITIONS ARE NOT AVAILABLE FOR
       CHILLICOTHE AND FARMINGTON.

MOZ001>031-035>038-043-044-053-054-162300-
...NORTHERN AND WESTERN MISSOURI...

CITY           SKY/WX    TMP DP  RH WIND       PRES   REMARKS
KANSAS CTY INT CLOUDY    47  47 100 SW10      29.83R
KANSAS C DTWN  CLOUDY    50  45  83 SW10      29.84R
LEE`S SUMMIT   LGT RAIN  49  46  90 SW12      29.83S
ST JOSEPH      LGT RAIN  43  43 100 CALM      29.83S
CHILLICOTHE      N/A     46  45  96 CALM      29.85F
KIRKSVILLE     FOG       40  40 100 E8        29.87S VSB<1/4

$$
MOZ066>068-077>081-088>096-101>105-162300-
...SOUTHWEST MISSOURI...

CITY           SKY/WX    TMP DP  RH WIND       PRES   REMARKS
SPRINGFIELD    MOSUNNY   61  55  81 S13       29.84S
JOPLIN         PTSUNNY   56  48  74 S10       29.86S
BRANSON        PTSUNNY   59  59 100 S5        29.88F

$$
MOZ032>034-039>042-045>050-055>058-069>072-162300-
...CENTRAL MISSOURI...

CITY           SKY/WX    TMP DP  RH WIND       PRES   REMARKS
COLUMBIA       CLOUDY    55  54  96 SE7       29.86F FOG
JEFFERSON CITY CLOUDY    57  55  93 E6        29.87S
ROLLA          CLOUDY    55  54  96 S13       29.88R
SEDALIA        MOSUNNY   61  54  77 S10       29.84S
WHITEMAN AFB   PTSUNNY   58  55  89 W8        29.82R
WARRENSBURG    CLOUDY    54  46  76 SW7       29.83F
OSAGE BEACH    CLOUDY    59  54  83 S9G16     29.87S

$$
MOZ051-052-059>065-162300-
...EAST CENTRAL MISSOURI...

CITY           SKY/WX    TMP DP  RH WIND       PRES   REMARKS
ST LOUIS INTL  TSTM      54  51  90 SE10      29.92S FOG
SPIRIT OF STL  LGT RAIN  53  52  96 CALM      29.91F FOG
ST CHARLES     CLOUDY    52  52 100 SE9       29.91F FOG

$$
MOZ072>076-082>087-097>100-106>115-162300-
...SOUTH CENTRAL AND SOUTHEAST MISSOURI...

CITY           SKY/WX    TMP DP  RH WIND       PRES   REMARKS
CAPE GIRARDEAU CLOUDY    60  56  86 SE9       29.99F
FARMINGTON     LGT RAIN  55  54  96 S7        29.95S FOG
POPLAR BLUFF   LGT RAIN  59  59 100 SE3       29.95F FOG
WEST PLAINS    CLOUDY    56  56 100 S8        29.91F FOG

$$




USA.gov is the U.S. government's official web portal to all federal, state and local government web resources and services.